Regional Weather Roundup
Issued by NWS

Home | Current Version | Previous Version | Graphics & Text | Print | Product List | Glossary Off
Versions: 1 2 3 4 5 6 7 8 9 10 11 12 13 14 15 16 17 18 19 20 21 22 23 24 25 26 27 28 29 30 31 32 33 34 35 36 37 38 39 40 41 42 43 44 45 46 47 48 49 50

000
ASUS43 KBIS 051820
RWRND

NORTH DAKOTA REGIONAL WEATHER ROUNDUP
NATIONAL WEATHER SERVICE BISMARCK ND
100 PM CDT TUE MAY 05 2015

NOTE: "FAIR" INDICATES FEW OR NO CLOUDS BELOW 12,000 FEET WITH NO
SIGNIFICANT WEATHER AND/OR OBSTRUCTIONS TO VISIBILITY.


NDZ001>003-009>011-017-051900-
NORTHWEST NORTH DAKOTA

CITY           SKY/WX    TMP DP  RH WIND       PRES   REMARKS
WILLISTON      SUNNY     75  37  25 SE17G25   29.86F
6HR MIN TEMP:  49; 6HR MAX TEMP:  75;

MINOT          SUNNY     73  34  23 SE26G36   29.95F
MINOT AFB      SUNNY     74  36  24 S28G35    29.93F
$$

NDZ018>021-031>035-040>046-051900-
SOUTHWEST NORTH DAKOTA

CITY           SKY/WX    TMP DP  RH WIND       PRES   REMARKS
BISMARCK       PTSUNNY   71  30  21 S26G32    30.00F
6HR MIN TEMP:  51; 6HR MAX TEMP:  71;

DICKINSON      SUNNY     71  45  39 S29G39    29.90F
GARRISON         N/A     72  35  25 S23G30    29.96F
6HR MIN TEMP:  52; 6HR MAX TEMP:  72;

HETTINGER ARPT MOSUNNY   69  47  45 S25G36    29.94F
$$

NDZ004>008-012>016-024-026-027-054-051900-
NORTHEAST NORTH DAKOTA

CITY           SKY/WX    TMP DP  RH WIND       PRES   REMARKS
GRAND FORKS    MOSUNNY   72  22  15 S17G25    30.09F
GRND FRKS AFB  SUNNY     73  25  16 S15G23    30.08F
DEVILS LAKE    MOSUNNY   72  30  21 S21G29    30.05F
$$

NDZ022-023-025-028>030-036>039-047>053-051900-
SOUTHEAST NORTH DAKOTA

CITY           SKY/WX    TMP DP  RH WIND       PRES   REMARKS
FARGO          SUNNY     74  21  13 SE20G28   30.09F
6HR MIN TEMP:  48; 6HR MAX TEMP:  75;

JAMESTOWN      MOSUNNY   74  28  18 S14G26    30.05F
$$



USA.gov is the U.S. government's official web portal to all federal, state and local government web resources and services.